Location: Bittkow
(50.3000°N, 19.0000°E)
Time: 22:12:39
(UTC+00:00)

ERS-2 - Pass Details

Date: 19 September 2020
Orbit: 492 x 499 km, 98.6° (Epoch: 30 October)

Event Time Altitude Azimuth Distance (km) Brightness Sun altitude
Rises 02:34:27 0° 160° (SSE) 2,581 5.7 -18.0°
Reaches altitude 10° 02:36:31 10° 158° (SSE) 1,702 4.8 -17.7°
Maximum altitude 02:40:10 77° 73° (ENE) 520 2.2 -17.2°
Drops below altitude 10° 02:43:51 10° 348° (NNW) 1,716 5.0 -16.7°
Sets 02:45:57 0° 347° (NNW) 2,605 5.9 -16.3°
